User: anonymous   Login
Location: Bazugues
(43.4465°N, 0.3432°E)
Time: 10:25:28
(UTC+00:00)
Language:

ERS-1 - Orbit

View from above orbital plane
View from above orbital plane
View from above satellite
View from above satellite

Ground track
Ground track

The orbit is defined by the following mean orbital elements,

1 21574U          26072.93750060 +.00000000 +00000-0 +12590-3 0 00009
2 21574  98.7877  91.2787 0031860 187.7541 172.3158 14.39452900    06
Epoch (UTC): 13 March 2026 22:30:00
Eccentricity: 0.0031860
inclination: 98.7877°
perigee height: 738 km
apogee height: 783 km
right ascension of ascending node: 91.2787°
argument of perigee: 187.7541°
revolutions per day: 14.39452900
mean anomaly at epoch: 172.3158°

The dashed part of the orbit path shows where the satellite is in the earth's shadow,  

DLR